[[{"header":{"parameterUnit":"m.s-1","parameterCategory":2,"la1":30.2991,"la2":30.254,"lo1":-89.0895,"lo2":-89.0444,"dy":0.0017,"dx":0.0017,"nx":28,"ny":28,"refTime":"2024-08-24T21:00:00:Z","depth":"0","parameterNumber":2,"parameterNumberName":"U-component_of_CURRENTS"},"data":[0,0,0,0,0,0,0,0,0,0,0,0,0,0,0,0,0,0,0,0,0,0,0,0,0,0,0,0,0,0,0,0,0,0,0,0,0,0,0,0,0,0,0,0,0,0,0,0,0,0,0,0,0,0,0,0,0,0,0.2063,0.2063,0,0.2052,0.2052,0.2051,0.2046,0.2047,0.2047,0.2047,0.1986,0.1984,0.1982,0,0,0,0,0,0,0,0,0,0,0,0,0,0.2074,0.2073,0.2063,0.2063,0.2063,0.2052,0.2052,0.2051,0.2046,0.2047,0.2047,0.2047,0.1987,0.1984,0.1982,0,0,0,0,0,0,0,0,0,0,0,0,0,0.2063,0.2073,0.2063,0.2062,0.2062,0.2052,0.2052,0.2051,0.2046,0.2047,0.2047,0.2048,0.1988,0.1985,0.1982,0.1953,0,0,0.1973,0.1972,0,0,0,0,0,0,0,0,0.2064,0.2062,0.2062,0.2062,0.2062,0.2054,0.2034,0.2017,0.2046,0.2048,0.2047,0.2048,0.2006,0.2002,0.1994,0.195,0.1948,0.1973,0.1971,0.197,0.1969,0,0,0,0,0,0,0,0.2065,0.2063,0.2055,0.2062,0.2062,0.2061,0.206,0.203,0.2021,0.2048,0.2049,0.2053,0.2006,0.1997,0.1993,0.1947,0.1973,0.197,0.1968,0.1967,0.1944,0.1945,0,0,0,0,0,0,0.2073,0.2063,0.2055,0.2055,0.2069,0.2061,0.2059,0.2053,0.2022,0.2019,0.2053,0.2053,0.2002,0.1996,0.199,0.201,0.197,0.1967,0.1965,0.1943,0.1945,0.1946,0,0,0,0,0,0,0.2073,0.2072,0.2056,0.2063,0.2061,0.206,0.2054,0.2053,0.205,0.2027,0.2022,0.2052,0.2002,0.1994,0.1985,0.2006,0.1966,0.1963,0.1942,0.1944,0.1945,0.2014,0,0,0,0,0,0,0.2073,0.2072,0.2066,0.2063,0.2061,0.2056,0.2054,0.2052,0.2054,0.2054,0.2025,0.2019,0.2002,0.199,0.1982,0.2001,0.1961,0.194,0.1943,0.1945,0.201,0.2018,0.2024,0,0,0,0,0,0.2073,0.206,0.2065,0.2064,0.2054,0.2056,0.2054,0.2054,0.2053,0.2052,0.2045,0.2021,0.1998,0.1988,0.1979,0.1997,0.1939,0.1942,0.1944,0.2007,0.2016,0.2024,0,0,0,0,0,0,0.2046,0.2058,0.2064,0.205,0.2059,0.2057,0.2053,0.2056,0.2047,0.2048,0.2026,0.202,0.2023,0.1998,0.1988,0.1999,0.1968,0.1969,0.2019,0.2027,0.2034,0.2022,0.1958,0,0,0,0,0,0.2042,0.2043,0.2054,0.2043,0.205,0.2053,0.2052,0.2058,0.2054,0.2051,0.2036,0.2025,0.2025,0.2017,0.2005,0.1999,0.1995,0.2009,0.2016,0.2022,0.2008,0.2044,0.2053,0.1954,0.1954,0.1954,0,0,0.2025,0.2035,0.2032,0.204,0.2043,0.2056,0.2052,0.2057,0.2071,0.2044,0.2048,0.2043,0.2029,0.2037,0.2036,0.2019,0.2051,0.2025,0.2031,0.2012,0.2048,0.2057,0.2066,0.1956,0.1956,0.1955,0,0,0.201,0.2006,0.2013,0.2028,0.2048,0.2052,0.2058,0.2066,0.2073,0.2078,0.2077,0.2085,0.2065,0.2073,0.2072,0.2104,0.2089,0.2106,0.2127,0.2164,0.2172,0.2179,0.22,0.2209,0.2108,0.2108,0.2108,0,0.1994,0.1999,0.2013,0.2034,0.2039,0.2055,0.2064,0.2079,0.2085,0.2092,0.2087,0.2094,0.2083,0.2109,0.2127,0.212,0.2133,0.2098,0.2174,0.218,0.2187,0.2206,0.2215,0.2112,0.2111,0.2111,0.2111,0,0.2,0.2002,0.2005,0.2039,0.2049,0.2053,0.2085,0.2096,0.2104,0.2122,0.2145,0.2143,0.2148,0.2158,0.2148,0.2193,0.2187,0.2182,0.2153,0.2201,0.2218,0.2226,0.2117,0.2116,0.2115,0.2114,0,0,0.1967,0.2001,0.2003,0.2011,0.2048,0.2053,0.2085,0.211,0.2129,0.2153,0.2172,0.2195,0.2203,0.2202,0.2208,0.2233,0.2297,0.2226,0.2227,0.2247,0.2375,0.2299,0.23,0.2315,0.2317,0.2318,0.2375,0,0.1963,0.1981,0.2007,0.2019,0.2024,0.2053,0.2078,0.2112,0.2137,0.2164,0.2195,0.2215,0.2224,0.2228,0.2265,0.2282,0.2318,0.2281,0.2323,0.2323,0.2251,0.2306,0.2102,0.2129,0.2382,0.2383,0.2384,0,0.1962,0.1973,0.1977,0.1998,0.2004,0.2022,0.205,0.208,0.214,0.2159,0.2204,0.2229,0.2279,0.2272,0.235,0.233,0.2357,0.237,0.2373,0.2275,0.2261,0.2119,0.2133,0.2035,0.2395,0.2394,0.2394,0,0.192,0.1947,0.1938,0.1949,0.1986,0.1995,0.2018,0.2074,0.2103,0.216,0.2184,0.2252,0.2277,0.2335,0.2382,0.2372,0.2457,0.2448,0.2408,0.2403,0.2219,0.2194,0.2135,0.2504,0.2504,0.2504,0.2503,0,0.1895,0.1895,0.1918,0.1919,0.1925,0.1964,0.1986,0.2023,0.2079,0.2118,0.2184,0.2218,0.2295,0.2357,0.2398,0.2428,0.2483,0.2411,0.2415,0.2237,0.2215,0.2111,0.2077,0.2506,0.2505,0.2505,0.2504,0,0.1858,0.1867,0.187,0.1896,0.1906,0.1915,0.1968,0.1988,0.2047,0.2097,0.2117,0.2203,0.2267,0.2344,0.2421,0.2431,0.2368,0.247,0.2249,0.2223,0.2058,0.2035,0.194,0.1882,0.2418,0.2416,0.2415,0,0.1831,0.1827,0.185,0.1849,0.1863,0.1885,0.1901,0.1964,0.1991,0.2087,0.2105,0.218,0.2206,0.2293,0.2304,0.2349,0.2305,0.2203,0.2136,0.2017,0.1997,0.1957,0.1914,0.193,0.1925,0.1921,0.1917,0,0.1791,0.1805,0.1815,0.1817,0.1826,0.1839,0.1869,0.1886,0.1962,0.1991,0.2026,0.2047,0.2101,0.2031,0.2091,0.2101,0.202,0.2116,0.2048,0.1647,0.1544,0.1499,0.1931,0.188,0.1883,0.1886,0.1888,0.189,0.1764,0.1766,0.1777,0.1779,0.1787,0.1785,0.1756,0.1787,0.1803,0.18,0.1892,0.1845,0.1801,0.1821,0.1832,0.1679,0.1769,0.1578,0.1576,0.1562,0.144,0.1786,0.1706,0.1709,0.1711,0.1713,0.1715,0,0.1717,0.1728,0.173,0.1723,0.1701,0.1724,0.1717,0.1661,0.1618,0.1638,0.1614,0.1507,0.1398,0.138,0.1244,0.1145,0.1114,0.1092,0.0968,0.097,0.1302,0.121,0.0951,0.0951,0.0951,0.0951,0.0951,0.0951,0.1692,0.1681,0.1687,0.1633,0.1617,0.1533,0.1496,0.1422,0.1394,0.127,0.1176,0.1156,0.1089,0.0912,0.0744,0.0717,0.0655,0.0559,0.0671,0.0858,0.0902,0.0945,0.0851,0.052,0.0519,0.0236,0.0233,0.0231]},{"header":{"parameterUnit":"m.s-1","parameterCategory":2,"la1":30.2991,"la2":30.254,"lo1":-89.0895,"lo2":-89.0444,"dy":0.0017,"dx":0.0017,"nx":28,"ny":28,"refTime":"2024-08-24T21:00:00:Z","depth":"0","parameterNumber":3,"parameterNumberName":"V-component_of_CURRENTS"},"data":[0,0,0,0,0,0,0,0,0,0,0,0,0,0,0,0,0,0,0,0,0,0,0,0,0,0,0,0,0,0,0,0,0,0,0,0,0,0,0,0,0,0,0,0,0,0,0,0,0,0,0,0,0,0,0,0,0,0,-0.0308,-0.0309,0,-0.0324,-0.0324,-0.0324,-0.0338,-0.0339,-0.0339,-0.0339,-0.0356,-0.0356,-0.0356,0,0,0,0,0,0,0,0,0,0,0,0,0,-0.0282,-0.0282,-0.0308,-0.0309,-0.0309,-0.0324,-0.0324,-0.0324,-0.0338,-0.0339,-0.0339,-0.0339,-0.0356,-0.0356,-0.0356,0,0,0,0,0,0,0,0,0,0,0,0,0,-0.0293,-0.0282,-0.0308,-0.0319,-0.032,-0.0324,-0.0324,-0.0324,-0.0338,-0.0339,-0.0339,-0.034,-0.0356,-0.0356,-0.0356,-0.0349,0,0,-0.0357,-0.0357,0,0,0,0,0,0,0,0,-0.0293,-0.0294,-0.0317,-0.0318,-0.032,-0.0331,-0.0321,-0.0333,-0.0338,-0.033,-0.0339,-0.034,-0.0349,-0.0349,-0.0349,-0.0349,-0.035,-0.0357,-0.0357,-0.0357,-0.0357,0,0,0,0,0,0,0,-0.0292,-0.0294,-0.0313,-0.0317,-0.0319,-0.032,-0.0322,-0.0323,-0.0335,-0.033,-0.0332,-0.0336,-0.0349,-0.0349,-0.035,-0.035,-0.0357,-0.0357,-0.0358,-0.0358,-0.0361,-0.0361,0,0,0,0,0,0,-0.0293,-0.0293,-0.0312,-0.0314,-0.0309,-0.0321,-0.0323,-0.0326,-0.0335,-0.0337,-0.0336,-0.0337,-0.0348,-0.0349,-0.035,-0.0345,-0.0357,-0.0358,-0.0358,-0.0361,-0.0361,-0.0361,0,0,0,0,0,0,-0.0292,-0.0295,-0.0312,-0.0305,-0.0307,-0.0321,-0.0324,-0.0326,-0.0327,-0.0339,-0.0341,-0.0336,-0.0349,-0.035,-0.0353,-0.0346,-0.0358,-0.0358,-0.0361,-0.0361,-0.0361,-0.0332,0,0,0,0,0,0,-0.0292,-0.0294,-0.0295,-0.0305,-0.0308,-0.031,-0.0324,-0.0326,-0.033,-0.0331,-0.034,-0.0342,-0.0349,-0.0352,-0.0353,-0.0346,-0.0358,-0.0361,-0.0361,-0.0361,-0.0333,-0.0331,-0.0329,0,0,0,0,0,-0.0291,-0.0287,-0.0295,-0.0297,-0.0309,-0.031,-0.0311,-0.0321,-0.033,-0.0325,-0.0335,-0.0342,-0.0352,-0.0352,-0.0353,-0.0346,-0.0361,-0.0361,-0.0361,-0.0334,-0.0332,-0.0329,0,0,0,0,0,0,-0.0271,-0.0289,-0.0297,-0.0299,-0.0304,-0.0313,-0.0311,-0.0319,-0.0323,-0.0326,-0.0338,-0.0341,-0.0342,-0.0349,-0.0348,-0.0348,-0.0359,-0.0359,-0.0338,-0.0336,-0.0334,-0.0319,-0.0358,0,0,0,0,0,-0.0269,-0.0274,-0.0287,-0.0287,-0.029,-0.0301,-0.0303,-0.0309,-0.0316,-0.0318,-0.0326,-0.0335,-0.0341,-0.0342,-0.0348,-0.0344,-0.0344,-0.0342,-0.034,-0.0339,-0.0328,-0.0331,-0.0328,-0.0361,-0.0361,-0.0361,0,0,-0.0261,-0.0272,-0.0275,-0.0284,-0.0289,-0.0284,-0.0302,-0.0302,-0.0297,-0.0319,-0.0314,-0.0327,-0.0339,-0.0338,-0.0338,-0.0342,-0.0328,-0.0339,-0.0337,-0.0327,-0.0331,-0.0328,-0.0325,-0.036,-0.036,-0.036,0,0,-0.0246,-0.0257,-0.0256,-0.0258,-0.0267,-0.0271,-0.0271,-0.0279,-0.0283,-0.0281,-0.0298,-0.0307,-0.0313,-0.0321,-0.0325,-0.0316,-0.0319,-0.0321,-0.0295,-0.0299,-0.0296,-0.0293,-0.028,-0.0277,-0.0318,-0.0318,-0.0318,0,-0.0238,-0.0237,-0.0254,-0.0249,-0.0246,-0.0264,-0.0252,-0.0256,-0.0264,-0.0263,-0.0276,-0.0288,-0.0303,-0.03,-0.03,-0.031,-0.0307,-0.0302,-0.0295,-0.0293,-0.029,-0.0278,-0.0275,-0.0316,-0.0317,-0.0317,-0.0317,0,-0.0222,-0.0218,-0.0214,-0.0216,-0.0213,-0.0206,-0.0213,-0.021,-0.0219,-0.0226,-0.0227,-0.0249,-0.0254,-0.0266,-0.028,-0.0273,-0.0273,-0.0293,-0.0298,-0.0285,-0.0273,-0.027,-0.0314,-0.0315,-0.0315,-0.0316,0,0,-0.0216,-0.0205,-0.0205,-0.0194,-0.0194,-0.0187,-0.0177,-0.0171,-0.0154,-0.0176,-0.0158,-0.0187,-0.0202,-0.0208,-0.023,-0.0237,-0.0225,-0.0255,-0.0256,-0.0236,-0.0216,-0.0198,-0.0193,-0.0244,-0.0243,-0.0243,-0.0211,0,-0.0199,-0.0177,-0.0177,-0.015,-0.0139,-0.0142,-0.0125,-0.0122,-0.012,-0.0105,-0.0138,-0.0134,-0.0179,-0.0178,-0.0193,-0.0215,-0.0217,-0.0231,-0.0237,-0.0236,-0.0217,-0.0189,-0.0146,-0.0112,-0.0208,-0.0207,-0.0207,0,-0.0192,-0.0174,-0.0144,-0.0113,-0.0107,-0.009,-0.0059,-0.0046,-0.0035,-0.0036,-0.0042,-0.0061,-0.0076,-0.0116,-0.0144,-0.015,-0.0177,-0.0199,-0.0199,-0.0187,-0.0212,-0.0143,-0.0103,-0.0143,-0.0202,-0.0203,-0.0203,0,-0.0187,-0.0155,-0.0126,-0.0117,-0.0084,-0.0065,-0.0046,-0.0026,-0.0001,0.0012,0.0035,0.0006,0.0006,-0.004,-0.0089,-0.0114,-0.0109,-0.0153,-0.0159,-0.0158,-0.0124,-0.012,-0.0117,-0.0167,-0.0167,-0.0167,-0.0167,0,-0.018,-0.0159,-0.0117,-0.0101,-0.0054,-0.0043,0.0009,0.0024,0.0058,0.011,0.0072,0.011,0.0025,0.0015,-0.0048,-0.0078,-0.0078,-0.0138,-0.0145,-0.0112,-0.0108,-0.0145,-0.0178,-0.0165,-0.0166,-0.0166,-0.0166,0,-0.0189,-0.0165,-0.0123,-0.0071,-0.0051,-0.0017,0.0046,0.0091,0.0112,0.0184,0.019,0.0191,0.0189,0.0118,0.0063,-0.001,-0.0068,-0.0067,-0.0013,-0.0015,-0.0075,-0.0108,-0.0105,-0.0144,-0.0071,-0.007,-0.0069,0,-0.0192,-0.017,-0.0097,-0.0054,-0.0027,0.0028,0.0076,0.0111,0.0169,0.0248,0.0293,0.0307,0.0348,0.0275,0.0167,0.0083,-0.0003,0.0033,-0.002,-0.0053,-0.0096,-0.0128,-0.0165,0.004,0.0041,0.0042,0.0043,0,-0.0179,-0.0153,-0.011,-0.0021,0.0041,0.0111,0.0186,0.0237,0.0304,0.0375,0.0478,0.0516,0.047,0.0416,0.0285,0.0205,0.0014,0.0053,0.0004,-0.0012,-0.003,-0.008,-0.0002,0.0054,0.0053,0.0052,0.0051,0.0051,-0.0159,-0.0122,-0.0051,0.0031,0.0106,0.0208,0.0274,0.0363,0.047,0.0586,0.0615,0.0684,0.0594,0.0437,0.0332,0.0151,0.0109,0.0074,0.0038,0.001,-0.0031,0.008,0.0128,0.0128,0.0127,0.0127,0.0126,0,-0.0109,-0.0064,0.0007,0.0119,0.0216,0.0242,0.0364,0.0431,0.0574,0.0669,0.0761,0.0759,0.0667,0.05,0.0287,0.0156,0.0072,0.0074,0.0035,-0.0007,0.0093,0.0094,0.0156,0.0156,0.0156,0.0156,0.0156,0.0156,-0.0074,0.0004,0.0042,0.0208,0.0285,0.0402,0.0475,0.0566,0.0642,0.075,0.0784,0.0793,0.0684,0.0425,0.0195,0.0121,-0.0005,0.0007,-0.0091,-0.0019,-0.0022,-0.0025,-0.0032,0.0003,0.0003,-0.0171,-0.0172,-0.0173]}],[{"header":{"parameterUnit":"m.s-1","parameterCategory":2,"la1":30.2991,"la2":30.254,"lo1":-89.0895,"lo2":-89.0444,"dy":0.0017,"dx":0.0017,"nx":28,"ny":28,"refTime":"2024-08-24T21:00:00:Z","depth":"2","parameterNumber":2,"parameterNumberName":"U-component_of_CURRENTS"},"data":[0,0,0,0,0,0,0,0,0,0,0,0,0,0,0,0,0,0,0,0,0,0,0,0,0,0,0,0,0,0,0,0,0,0,0,0,0,0,0,0,0,0,0,0,0,0,0,0,0,0,0,0,0,0,0,0,0,0,0.1923,0.1924,0,0.1938,0.1937,0.1935,0.1978,0.198,0.1983,0.1986,0.2044,0.2043,0.2042,0,0,0,0,0,0,0,0,0,0,0,0,0,0.1837,0.1838,0.1923,0.1925,0.1927,0.1938,0.1937,0.1935,0.1977,0.198,0.1984,0.1987,0.2045,0.2044,0.2042,0,0,0,0,0,0,0,0,0,0,0,0,0,0.1847,0.1838,0.1922,0.1963,0.1969,0.1939,0.1936,0.1934,0.1977,0.1981,0.1985,0.1988,0.2045,0.2044,0.2042,0.1952,0,0,0.2038,0.2037,0,0,0,0,0,0,0,0,0.1847,0.1848,0.1955,0.1961,0.1967,0.1977,0.1929,0.1949,0.1975,0.1953,0.1986,0.199,0.2036,0.2035,0.2001,0.1955,0.1958,0.2038,0.2037,0.2036,0.2036,0,0,0,0,0,0,0,0.1846,0.1847,0.1909,0.1958,0.1965,0.1951,0.1955,0.1931,0.1957,0.1955,0.1963,0.1994,0.2037,0.2002,0.2003,0.1958,0.2038,0.2036,0.2036,0.2035,0.2075,0.2077,0,0,0,0,0,0,0.1884,0.1847,0.1909,0.1911,0.1937,0.1951,0.1955,0.1954,0.1957,0.1966,0.1991,0.1997,0.2002,0.2004,0.2005,0.2095,0.2036,0.2035,0.2034,0.2073,0.2075,0.2077,0,0,0,0,0,0,0.1881,0.1887,0.1909,0.1897,0.1902,0.1951,0.1947,0.1952,0.1966,0.1987,0.1994,0.2009,0.2005,0.2008,0.204,0.2092,0.2034,0.2033,0.2071,0.2074,0.2076,0.215,0,0,0,0,0,0,0.1877,0.1885,0.191,0.1898,0.1905,0.1918,0.1946,0.195,0.1986,0.1994,0.2003,0.201,0.2009,0.2043,0.2039,0.2089,0.2032,0.2068,0.2072,0.2075,0.2146,0.2155,0.2164,0,0,0,0,0,0.1873,0.1875,0.191,0.192,0.1932,0.1921,0.1919,0.1955,0.1984,0.198,0.2012,0.2012,0.2065,0.2042,0.2037,0.2088,0.2066,0.2071,0.2075,0.2141,0.2153,0.2164,0,0,0,0,0,0,0.1838,0.1881,0.1919,0.1933,0.1952,0.1936,0.1953,0.1967,0.1976,0.2015,0.2012,0.2019,0.2075,0.2061,0.2036,0.2113,0.2074,0.2077,0.2126,0.2137,0.2146,0.2128,0.2031,0,0,0,0,0,0.1849,0.1876,0.1902,0.1922,0.1934,0.1946,0.1957,0.1986,0.1997,0.2006,0.2013,0.2043,0.2072,0.2093,0.2103,0.2119,0.2102,0.2157,0.2167,0.2174,0.2159,0.2191,0.2202,0.2091,0.2091,0.2091,0,0,0.1842,0.188,0.1893,0.1922,0.1937,0.1948,0.1957,0.199,0.2005,0.201,0.2032,0.2068,0.2084,0.2127,0.2152,0.2132,0.2198,0.218,0.2186,0.2166,0.2197,0.2207,0.2217,0.2094,0.2094,0.2093,0,0,0.184,0.1873,0.1898,0.1922,0.1988,0.198,0.2,0.2009,0.2022,0.205,0.2081,0.2146,0.2154,0.219,0.2207,0.2264,0.2246,0.2285,0.2315,0.2348,0.2357,0.2364,0.2356,0.2362,0.2291,0.2291,0.2291,0,0.1842,0.1875,0.19,0.194,0.197,0.1997,0.2018,0.2014,0.204,0.2059,0.2083,0.2159,0.2184,0.2248,0.2286,0.2286,0.2283,0.2272,0.2359,0.2366,0.2372,0.2362,0.2368,0.2295,0.2295,0.2294,0.2294,0,0.1865,0.1903,0.1914,0.1973,0.1993,0.2017,0.2039,0.2052,0.2085,0.2107,0.2185,0.2223,0.2272,0.231,0.2315,0.2387,0.2364,0.2366,0.2327,0.2388,0.2373,0.2378,0.2301,0.23,0.2298,0.2297,0,0,0.1829,0.1912,0.1922,0.1952,0.2023,0.202,0.2054,0.2074,0.2102,0.2162,0.2204,0.2289,0.2334,0.2356,0.239,0.2428,0.2485,0.242,0.242,0.2404,0.2531,0.2382,0.2373,0.2509,0.2511,0.2512,0.2502,0,0.1842,0.1894,0.1942,0.1977,0.1992,0.2039,0.2048,0.2094,0.2135,0.2175,0.2258,0.2319,0.2342,0.2395,0.2439,0.248,0.2501,0.2485,0.248,0.2479,0.2334,0.2375,0.2195,0.2159,0.2506,0.2507,0.2507,0,0.1856,0.1887,0.1923,0.1968,0.1979,0.2013,0.2049,0.2072,0.2148,0.2192,0.2288,0.234,0.2429,0.2435,0.2514,0.2505,0.2514,0.2534,0.2535,0.2365,0.2338,0.2156,0.2154,0.2515,0.2514,0.2513,0.2513,0,0.1796,0.1867,0.1885,0.1912,0.1967,0.2,0.2032,0.2101,0.2122,0.2224,0.2274,0.2372,0.2433,0.248,0.2526,0.2529,0.2586,0.2594,0.2456,0.2445,0.2269,0.2239,0.2621,0.2621,0.2621,0.2621,0.2621,0,0.1775,0.179,0.1869,0.1877,0.1907,0.1976,0.2022,0.2063,0.2148,0.2188,0.2292,0.2335,0.245,0.2497,0.2527,0.2495,0.2586,0.2447,0.2434,0.2288,0.2262,0.2551,0.2543,0.2621,0.2621,0.2621,0.2621,0,0.1713,0.1758,0.178,0.185,0.1882,0.1913,0.2014,0.2043,0.2128,0.2189,0.2226,0.2323,0.2367,0.2438,0.2506,0.2471,0.2476,0.2435,0.2231,0.2192,0.2308,0.2304,0.2273,0.2268,0.2264,0.226,0.2257,0,0.1689,0.17,0.1758,0.1783,0.1831,0.1899,0.1941,0.203,0.2062,0.2163,0.2176,0.2248,0.2238,0.2264,0.2262,0.2248,0.2351,0.2039,0.2,0.2282,0.2274,0.2277,0.228,0.1809,0.1802,0.1797,0.1793,0,0.1657,0.1682,0.1693,0.1735,0.179,0.1828,0.1903,0.1906,0.1994,0.2009,0.2015,0.2016,0.2047,0.1933,0.1919,0.1902,0.2028,0.1921,0.2298,0.1908,0.1838,0.1832,0.1852,0.1745,0.175,0.1753,0.1756,0.1758,0.1645,0.1639,0.1659,0.1698,0.1747,0.1755,0.1735,0.1772,0.1753,0.1736,0.18,0.1724,0.1743,0.16,0.1557,0.1552,0.1698,0.1618,0.1638,0.1663,0.1594,0.1518,0.1351,0.1353,0.1355,0.1357,0.1358,0,0.1644,0.1635,0.1635,0.1638,0.1638,0.1702,0.1698,0.1634,0.1546,0.1533,0.1482,0.1308,0.1187,0.1243,0.115,0.1126,0.1172,0.1075,0.1128,0.1175,0.1216,0.1129,0.076,0.0759,0.0757,0.0756,0,0,0.1627,0.1594,0.1564,0.1541,0.1555,0.1505,0.1471,0.1371,0.1316,0.1181,0.1103,0.1122,0.1161,0.0936,0.0907,0.0816,0.0998,0.0781,0.1259,0.1367,0.1407,0.152,0.1434,0,0,0,0,0]},{"header":{"parameterUnit":"m.s-1","parameterCategory":2,"la1":30.2991,"la2":30.254,"lo1":-89.0895,"lo2":-89.0444,"dy":0.0017,"dx":0.0017,"nx":28,"ny":28,"refTime":"2024-08-24T21:00:00:Z","depth":"2","parameterNumber":3,"parameterNumberName":"V-component_of_CURRENTS"},"data":[0,0,0,0,0,0,0,0,0,0,0,0,0,0,0,0,0,0,0,0,0,0,0,0,0,0,0,0,0,0,0,0,0,0,0,0,0,0,0,0,0,0,0,0,0,0,0,0,0,0,0,0,0,0,0,0,0,0,0.0123,0.0122,0,0.0083,0.0083,0.0083,0.0025,0.0024,0.0022,0.0021,-0.0077,-0.0078,-0.008,0,0,0,0,0,0,0,0,0,0,0,0,0,0.016,0.016,0.0123,0.0122,0.0121,0.0083,0.0083,0.0083,0.0025,0.0024,0.0022,0.002,-0.0077,-0.0078,-0.008,0,0,0,0,0,0,0,0,0,0,0,0,0,0.014,0.016,0.0124,0.0084,0.008,0.0083,0.0083,0.0083,0.0026,0.0024,0.0021,0.0019,-0.0076,-0.0078,-0.008,-0.0047,0,0,-0.0086,-0.0086,0,0,0,0,0,0,0,0,0.0141,0.0139,0.0091,0.0087,0.0082,0.0052,0.006,0.0035,0.0026,0.0052,0.0021,0.0018,-0.0041,-0.0046,-0.004,-0.0052,-0.0056,-0.0086,-0.0087,-0.0088,-0.0088,0,0,0,0,0,0,0,0.0142,0.014,0.0113,0.009,0.0085,0.0072,0.0067,0.0056,0.0021,0.0049,0.0044,0.0032,-0.0043,-0.0038,-0.0043,-0.0057,-0.0086,-0.0087,-0.0088,-0.0089,-0.0139,-0.0139,0,0,0,0,0,0,0.0139,0.0142,0.0114,0.0111,0.0101,0.0072,0.0067,0.0068,0.0022,0.0012,0.0034,0.0029,-0.0034,-0.0041,-0.0047,-0.0087,-0.0088,-0.0089,-0.009,-0.0139,-0.0139,-0.0139,0,0,0,0,0,0,0.014,0.0138,0.0115,0.012,0.0116,0.0074,0.0076,0.0069,0.0056,0.001,-0.0,0.0025,-0.0036,-0.0044,-0.0078,-0.0089,-0.009,-0.0092,-0.0138,-0.0139,-0.0139,-0.0118,0,0,0,0,0,0,0.0142,0.0139,0.0135,0.0121,0.0115,0.0105,0.0077,0.0069,0.005,0.0044,0.0,-0.001,-0.0038,-0.0075,-0.008,-0.0091,-0.0093,-0.0138,-0.0139,-0.0139,-0.0119,-0.0118,-0.0117,0,0,0,0,0,0.0144,0.0149,0.0135,0.0131,0.0113,0.0104,0.0101,0.0067,0.0052,0.0049,0.0013,-0.001,-0.0082,-0.0077,-0.0082,-0.0094,-0.0138,-0.0138,-0.0139,-0.0119,-0.0118,-0.0117,0,0,0,0,0,0,0.0167,0.0143,0.0127,0.0126,0.0108,0.0092,0.0083,0.0069,0.0044,0.0027,-0.0006,-0.0019,-0.0053,-0.0071,-0.0064,-0.011,-0.0115,-0.0117,-0.0098,-0.0097,-0.0097,-0.0068,-0.0095,0,0,0,0,0,0.0171,0.0164,0.0142,0.0139,0.0131,0.0111,0.0101,0.0076,0.0053,0.004,0.0011,-0.0024,-0.0052,-0.0075,-0.0099,-0.0117,-0.0116,-0.013,-0.0129,-0.0129,-0.0109,-0.0123,-0.0121,-0.0141,-0.0141,-0.0141,0,0,0.0178,0.0163,0.0158,0.0142,0.0128,0.0127,0.01,0.0081,0.0081,0.0034,0.0021,-0.0019,-0.0055,-0.0083,-0.01,-0.0106,-0.0122,-0.0129,-0.0128,-0.0109,-0.0123,-0.0121,-0.0119,-0.0141,-0.0141,-0.0141,0,0,0.0195,0.0178,0.0179,0.0166,0.0135,0.0127,0.0122,0.0099,0.0087,0.0071,0.0031,-0.0011,-0.0043,-0.0076,-0.0094,-0.0098,-0.0114,-0.0118,-0.0095,-0.0109,-0.0107,-0.0105,-0.0096,-0.0094,-0.0122,-0.0122,-0.0122,0,0.0204,0.0205,0.0178,0.0177,0.017,0.0132,0.0139,0.013,0.0097,0.0094,0.0064,0.0011,-0.0033,-0.0058,-0.0075,-0.0095,-0.0099,-0.0097,-0.0106,-0.0105,-0.0103,-0.0095,-0.0092,-0.0121,-0.0121,-0.0122,-0.0122,0,0.0225,0.0219,0.0221,0.021,0.0202,0.0196,0.0178,0.0168,0.0148,0.0135,0.0104,0.0047,0.0011,-0.0018,-0.0052,-0.0071,-0.0075,-0.01,-0.0105,-0.01,-0.0091,-0.0089,-0.012,-0.012,-0.0121,-0.0121,0,0,0.0268,0.0241,0.0242,0.024,0.0216,0.0217,0.022,0.0219,0.0225,0.0181,0.0188,0.0118,0.0074,0.0051,-0.0006,-0.0027,-0.0037,-0.0064,-0.0065,-0.0047,-0.0052,-0.0056,-0.0054,-0.0071,-0.0071,-0.0071,-0.0048,0,0.0295,0.0302,0.0283,0.0295,0.03,0.0272,0.0286,0.0272,0.0256,0.025,0.0193,0.016,0.0105,0.0062,0.0039,-0.0023,-0.0031,-0.0039,-0.0066,-0.0066,-0.0064,-0.0052,-0.0029,-0.0007,-0.0046,-0.0046,-0.0046,0,0.0327,0.0327,0.0342,0.034,0.0342,0.0342,0.0353,0.0354,0.0336,0.0315,0.0275,0.0227,0.0174,0.0123,0.0062,0.0056,0.0011,-0.0026,-0.0026,-0.003,-0.0066,-0.0021,-0.0002,-0.0042,-0.0042,-0.0043,-0.0043,0,0.0375,0.0372,0.0387,0.0383,0.0377,0.038,0.0377,0.0369,0.0376,0.0338,0.0326,0.0274,0.0226,0.0175,0.0092,0.0067,0.0048,0.0001,-0.0027,-0.0027,-0.0009,-0.0008,-0.0017,-0.0017,-0.0017,-0.0017,-0.0018,0,0.0417,0.0431,0.0404,0.0412,0.0435,0.0411,0.0432,0.0421,0.0405,0.0422,0.0346,0.0352,0.0231,0.0201,0.0133,0.0073,0.008,-0.0004,-0.002,-0.0002,-0.0001,-0.0037,-0.0039,-0.0017,-0.0017,-0.0017,-0.0017,0,0.0464,0.0452,0.0464,0.0453,0.0455,0.0463,0.0457,0.0471,0.0443,0.046,0.044,0.0398,0.0356,0.027,0.019,0.0118,0.0063,0.0044,0.0085,0.0072,-0.001,-0.0012,0.0009,0.0009,0.0009,0.001,0.001,0,0.0492,0.0496,0.049,0.0496,0.0487,0.0493,0.0503,0.0486,0.0504,0.0511,0.0532,0.0486,0.0481,0.0374,0.0252,0.0151,0.0111,0.0083,0.003,0.0012,-0.0007,-0.0009,-0.0011,0.0066,0.0067,0.0067,0.0068,0,0.0532,0.0518,0.0523,0.0526,0.0533,0.0553,0.0564,0.0596,0.0595,0.0614,0.0663,0.0657,0.0557,0.046,0.0294,0.0222,0.0094,0.0086,0.0066,0.0049,0.0065,0.0047,0.0043,0.0071,0.0071,0.0071,0.007,0.007,0.0555,0.0555,0.0543,0.0548,0.0557,0.0592,0.062,0.0655,0.0704,0.0721,0.0756,0.0721,0.0621,0.0399,0.0296,0.0148,0.0143,0.0063,0.0062,0.0061,0.0056,0.0071,0.0079,0.0079,0.0079,0.0078,0.0078,0,0.0559,0.0548,0.0563,0.0574,0.0582,0.0581,0.0643,0.0667,0.0732,0.0757,0.0773,0.0656,0.0563,0.043,0.0232,0.0119,0.0099,0.0063,0.0069,0.0067,0.0065,0.006,0.0084,0.0083,0.0083,0.0082,0,0,0.0562,0.0566,0.0568,0.0578,0.058,0.0595,0.0627,0.0672,0.0695,0.0713,0.0685,0.0674,0.0565,0.0414,0.0294,0.0183,0.0134,0.015,0.0162,0.0183,0.0181,0.0089,0.0082,0,0,0,0,0]}],[{"header":{"parameterUnit":"m.s-1","parameterCategory":2,"la1":30.2991,"la2":30.254,"lo1":-89.0895,"lo2":-89.0444,"dy":0.0017,"dx":0.0017,"nx":28,"ny":28,"refTime":"2024-08-24T21:00:00:Z","depth":"4","parameterNumber":2,"parameterNumberName":"U-component_of_CURRENTS"},"data":[0,0,0,0,0,0,0,0,0,0,0,0,0,0,0,0,0,0,0,0,0,0,0,0,0,0,0,0,0,0,0,0,0,0,0,0,0,0,0,0,0,0,0,0,0,0,0,0,0,0,0,0,0,0,0,0,0,0,0.0668,0.0668,0,0.0687,0.0687,0.0688,0.0701,0.0701,0.0701,0.0701,0.077,0.0772,0.0774,0,0,0,0,0,0,0,0,0,0,0,0,0,0.0681,0.068,0.0668,0.0668,0.0668,0.0687,0.0687,0.0688,0.0701,0.0701,0.0701,0.0701,0.077,0.0772,0.0774,0,0,0,0,0,0,0,0,0,0,0,0,0,0.0686,0.068,0.0668,0.0676,0.0677,0.0687,0.0687,0.0688,0.0701,0.0701,0.0701,0.0701,0.0769,0.0772,0.0775,0.0794,0,0,0.0783,0.0785,0,0,0,0,0,0,0,0,0.0686,0.0686,0.0675,0.0675,0.0676,0.069,0.0717,0.0725,0.0701,0.0693,0.0701,0.0701,0.0747,0.0752,0.0757,0.0797,0.08,0.0784,0.0785,0.0787,0.0787,0,0,0,0,0,0,0,0.0686,0.0686,0.0677,0.0675,0.0676,0.0691,0.0692,0.0719,0.0723,0.0694,0.0695,0.0694,0.0748,0.0754,0.0759,0.0801,0.0784,0.0786,0.0788,0.0789,0.089,0.0891,0,0,0,0,0,0,0.0678,0.0685,0.0677,0.0678,0.0679,0.0691,0.0691,0.0687,0.0721,0.0726,0.0694,0.0695,0.075,0.0756,0.0762,0.0823,0.0787,0.0789,0.0791,0.089,0.0891,0.0892,0,0,0,0,0,0,0.0678,0.0677,0.0676,0.0681,0.0682,0.069,0.0685,0.0687,0.0711,0.0721,0.0726,0.0717,0.075,0.0758,0.0795,0.0824,0.0791,0.0793,0.0888,0.089,0.0891,0.0922,0,0,0,0,0,0,0.0678,0.0677,0.0685,0.068,0.0681,0.0688,0.0685,0.0688,0.0709,0.071,0.0742,0.0747,0.075,0.0791,0.0798,0.0827,0.0795,0.0887,0.0889,0.0891,0.0919,0.0924,0.0928,0,0,0,0,0,0.0679,0.0682,0.0685,0.0685,0.0687,0.0688,0.0691,0.0698,0.071,0.072,0.0742,0.0747,0.0808,0.0794,0.0802,0.0833,0.0886,0.0888,0.0891,0.0918,0.0923,0.0928,0,0,0,0,0,0,0.0692,0.0683,0.0687,0.0688,0.0692,0.069,0.0703,0.0711,0.0737,0.0745,0.0761,0.0767,0.0812,0.0818,0.0802,0.0867,0.0848,0.0852,0.0866,0.0871,0.0875,0.088,0.0798,0,0,0,0,0,0.0698,0.07,0.0694,0.0699,0.0703,0.0711,0.0719,0.072,0.0734,0.0746,0.0773,0.08,0.0825,0.0844,0.0865,0.0904,0.091,0.0928,0.0933,0.0936,0.0945,0.0973,0.0981,0.0899,0.0899,0.0899,0,0,0.0707,0.0701,0.0704,0.0703,0.071,0.0719,0.0716,0.0727,0.0747,0.0751,0.0803,0.082,0.0838,0.0876,0.0897,0.0887,0.0962,0.0939,0.0942,0.0949,0.0976,0.0984,0.0991,0.0901,0.09,0.09,0,0,0.0714,0.0719,0.0722,0.0726,0.0731,0.0737,0.0745,0.0758,0.0778,0.0819,0.0827,0.0856,0.0909,0.0917,0.093,0.0972,0.0983,0.0989,0.1018,0.1045,0.1052,0.1058,0.1071,0.1078,0.0991,0.0991,0.0991,0,0.0728,0.0725,0.0726,0.0729,0.0737,0.0749,0.0758,0.0781,0.0809,0.0831,0.0841,0.0912,0.0926,0.0962,0.0979,0.0983,0.1,0.0996,0.105,0.1057,0.1062,0.1075,0.1082,0.0993,0.0993,0.0992,0.0992,0,0.073,0.0738,0.0742,0.0751,0.0763,0.0772,0.0793,0.0825,0.086,0.0879,0.0936,0.0956,0.0995,0.1007,0.1012,0.1061,0.106,0.1052,0.1036,0.1073,0.1083,0.109,0.0995,0.0995,0.0994,0.0994,0,0,0.0733,0.0742,0.0747,0.0756,0.0774,0.0782,0.0826,0.0861,0.0897,0.094,0.0987,0.1031,0.1047,0.1062,0.107,0.1097,0.1149,0.1103,0.1103,0.1114,0.1213,0.1123,0.1121,0.1159,0.1161,0.1162,0.1202,0,0.0739,0.075,0.0753,0.078,0.079,0.0814,0.0855,0.089,0.0934,0.0986,0.1015,0.1064,0.1067,0.1094,0.1122,0.1144,0.1172,0.1139,0.1178,0.1179,0.1093,0.1128,0.1167,0.1207,0.1209,0.121,0.1211,0,0.0741,0.0747,0.077,0.0797,0.0806,0.083,0.0893,0.0926,0.099,0.1029,0.1076,0.1103,0.1152,0.115,0.121,0.1196,0.1216,0.1227,0.1228,0.1139,0.1102,0.1165,0.1224,0.1223,0.1222,0.1221,0.122,0,0.0745,0.0761,0.0784,0.0791,0.0825,0.0855,0.0884,0.0944,0.0982,0.1058,0.1095,0.1151,0.1191,0.1226,0.1255,0.1248,0.1313,0.1296,0.123,0.1223,0.1279,0.1272,0.1344,0.1344,0.1344,0.1344,0.1344,0,0.0743,0.0761,0.0791,0.0802,0.0837,0.0862,0.0913,0.0957,0.102,0.1057,0.1117,0.1152,0.122,0.1258,0.1275,0.1271,0.1329,0.1243,0.1231,0.1289,0.1283,0.1283,0.1276,0.1345,0.1345,0.1345,0.1344,0,0.0739,0.0759,0.0785,0.0825,0.0839,0.0868,0.0919,0.0951,0.1021,0.1073,0.1102,0.1178,0.1223,0.1265,0.132,0.1286,0.1293,0.1279,0.1339,0.1329,0.1181,0.1175,0.1206,0.1203,0.12,0.1198,0.1197,0,0.0731,0.0748,0.0797,0.0811,0.083,0.0869,0.0891,0.0953,0.0978,0.107,0.1084,0.1161,0.12,0.1199,0.1251,0.1268,0.1257,0.125,0.1216,0.1183,0.117,0.1167,0.1164,0.1193,0.1192,0.1192,0.1191,0,0.0715,0.0749,0.077,0.08,0.0824,0.0838,0.0872,0.0885,0.0951,0.1023,0.1047,0.1072,0.1116,0.1147,0.1172,0.1181,0.1245,0.1225,0.1229,0.1198,0.1169,0.1157,0.1157,0.1183,0.1184,0.1185,0.1185,0,0.0709,0.0717,0.0754,0.0771,0.0799,0.0792,0.0815,0.0829,0.086,0.0952,0.0957,0.1031,0.1102,0.1102,0.1121,0.1125,0.1108,0.1068,0.1081,0.109,0.1034,0.0979,0.0932,0,0,0,0,0,0.0689,0.0691,0.0713,0.0723,0.075,0.0764,0.0791,0.0812,0.0871,0.0863,0.0908,0.0941,0.0971,0.1008,0.099,0.1073,0.1115,0.1047,0.1076,0.1138,0.1147,0.1091,0,0,0,0,0,0,0.0674,0.0696,0.0697,0.0678,0.0682,0.0693,0.071,0.0747,0.074,0.0812,0.0832,0.089,0.0934,0.0983,0.0979,0.099,0.0988,0.1095,0.1092,0.1133,0.1141,0.1149,0.1094,0,0,0,0,0]},{"header":{"parameterUnit":"m.s-1","parameterCategory":2,"la1":30.2991,"la2":30.254,"lo1":-89.0895,"lo2":-89.0444,"dy":0.0017,"dx":0.0017,"nx":28,"ny":28,"refTime":"2024-08-24T21:00:00:Z","depth":"4","parameterNumber":3,"parameterNumberName":"V-component_of_CURRENTS"},"data":[0,0,0,0,0,0,0,0,0,0,0,0,0,0,0,0,0,0,0,0,0,0,0,0,0,0,0,0,0,0,0,0,0,0,0,0,0,0,0,0,0,0,0,0,0,0,0,0,0,0,0,0,0,0,0,0,0,0,0.024,0.0239,0,0.0224,0.0223,0.0223,0.0224,0.0224,0.0225,0.0225,0.021,0.0209,0.0209,0,0,0,0,0,0,0,0,0,0,0,0,0,0.0242,0.0242,0.024,0.0239,0.0239,0.0224,0.0223,0.0223,0.0224,0.0224,0.0225,0.0225,0.021,0.021,0.0209,0,0,0,0,0,0,0,0,0,0,0,0,0,0.0235,0.0242,0.024,0.0238,0.0238,0.0224,0.0223,0.0223,0.0224,0.0224,0.0225,0.0225,0.0211,0.021,0.0209,0.0195,0,0,0.0206,0.0205,0,0,0,0,0,0,0,0,0.0235,0.0235,0.0238,0.0238,0.0238,0.0227,0.0219,0.0214,0.0224,0.0229,0.0225,0.0225,0.0216,0.0214,0.021,0.0194,0.0194,0.0206,0.0205,0.0205,0.0204,0,0,0,0,0,0,0,0.0236,0.0235,0.0233,0.0238,0.0238,0.0228,0.0228,0.0218,0.022,0.0228,0.0229,0.0227,0.0215,0.0211,0.021,0.0193,0.0206,0.0205,0.0204,0.0204,0.0188,0.0188,0,0,0,0,0,0,0.0239,0.0236,0.0233,0.0233,0.0238,0.0228,0.0228,0.023,0.022,0.0219,0.0227,0.0227,0.0212,0.0211,0.0209,0.0217,0.0205,0.0204,0.0203,0.0188,0.0188,0.0188,0,0,0,0,0,0,0.024,0.024,0.0234,0.0234,0.0233,0.0228,0.023,0.0229,0.0231,0.0219,0.0218,0.0231,0.0212,0.021,0.0205,0.0216,0.0203,0.0202,0.0188,0.0188,0.0188,0.0218,0,0,0,0,0,0,0.024,0.024,0.0244,0.0234,0.0233,0.0232,0.0229,0.0228,0.0229,0.023,0.0222,0.022,0.0213,0.0207,0.0205,0.0214,0.0202,0.0187,0.0188,0.0188,0.0216,0.0219,0.0221,0,0,0,0,0,0.024,0.0245,0.0244,0.0244,0.0238,0.0233,0.0231,0.0228,0.0229,0.0231,0.0225,0.0221,0.0207,0.0206,0.0203,0.0213,0.0187,0.0188,0.0188,0.0215,0.0218,0.0221,0,0,0,0,0,0,0.025,0.0245,0.0244,0.0249,0.0244,0.0233,0.0235,0.0232,0.0228,0.0231,0.0219,0.0217,0.0218,0.0209,0.0208,0.0209,0.0198,0.0197,0.022,0.0222,0.0224,0.0233,0.0201,0,0,0,0,0,0.0253,0.0257,0.0249,0.0254,0.0252,0.0244,0.0242,0.0241,0.0235,0.0234,0.0227,0.022,0.0215,0.0214,0.0206,0.0204,0.0187,0.0209,0.0211,0.0213,0.0218,0.0197,0.0198,0.0189,0.0189,0.0189,0,0,0.0259,0.0257,0.026,0.0256,0.0253,0.0255,0.0244,0.0245,0.0252,0.0232,0.0238,0.0226,0.0215,0.0216,0.0215,0.0211,0.0206,0.0213,0.0215,0.0219,0.0197,0.0198,0.0199,0.0189,0.0189,0.0189,0,0,0.0272,0.027,0.0278,0.0275,0.0273,0.0267,0.027,0.0262,0.0263,0.0261,0.0252,0.0245,0.0236,0.023,0.0226,0.0234,0.0216,0.0235,0.0255,0.0235,0.0235,0.0236,0.0212,0.021,0.0238,0.0238,0.0238,0,0.0281,0.0288,0.0279,0.0285,0.0288,0.0275,0.0285,0.0282,0.0275,0.0276,0.0269,0.0256,0.0244,0.0246,0.025,0.024,0.0224,0.0247,0.0238,0.0238,0.0238,0.0213,0.021,0.0239,0.0239,0.0239,0.0239,0,0.0298,0.0305,0.0309,0.0315,0.0316,0.0321,0.0316,0.0317,0.0314,0.0309,0.0308,0.0288,0.0281,0.0276,0.0265,0.0263,0.0251,0.0242,0.0232,0.024,0.0214,0.021,0.0241,0.0241,0.024,0.024,0,0,0.0324,0.0321,0.0326,0.0333,0.0333,0.0337,0.0346,0.0349,0.036,0.0346,0.0354,0.0337,0.0325,0.0319,0.0303,0.0286,0.0266,0.0268,0.0266,0.0246,0.0219,0.0206,0.0201,0.0256,0.0256,0.0256,0.02,0,0.0344,0.0358,0.0354,0.0375,0.0381,0.0376,0.0387,0.0389,0.0386,0.0388,0.0367,0.0367,0.0342,0.0341,0.032,0.0282,0.026,0.0282,0.0213,0.0211,0.02,0.0198,0.0255,0.0197,0.0196,0.0196,0.0195,0,0.0368,0.0372,0.039,0.0404,0.0408,0.0423,0.044,0.0448,0.0445,0.0441,0.0432,0.0413,0.0391,0.0367,0.0304,0.032,0.0274,0.0239,0.0236,0.0213,0.0192,0.0188,0.0189,0.019,0.019,0.0191,0.0191,0,0.0389,0.0404,0.0419,0.0423,0.0433,0.045,0.0462,0.0468,0.0481,0.0478,0.0481,0.0449,0.0435,0.0376,0.0304,0.0304,0.0227,0.0216,0.0159,0.0158,0.0173,0.0173,0.0168,0.0168,0.0169,0.0169,0.0169,0,0.0409,0.0427,0.0433,0.0442,0.0473,0.0476,0.0513,0.0516,0.0527,0.0541,0.0513,0.0509,0.0437,0.0384,0.0314,0.0226,0.0231,0.0162,0.0143,0.0186,0.0188,0.017,0.0171,0.0167,0.0167,0.0167,0.0168,0,0.0429,0.0431,0.0452,0.047,0.0483,0.0507,0.0548,0.0569,0.0576,0.0591,0.0592,0.0553,0.0484,0.0405,0.0305,0.0242,0.0158,0.0125,0.0175,0.016,0.0098,0.0102,0.0057,0.0056,0.0055,0.0054,0.0054,0,0.0439,0.0449,0.0475,0.0491,0.0505,0.0543,0.057,0.0592,0.0608,0.0612,0.0613,0.0565,0.0525,0.0374,0.029,0.0157,0.0136,0.0089,0.0094,0.0101,0.0087,0.0092,0.0096,0.0053,0.0052,0.0052,0.0052,0,0.0456,0.0467,0.0479,0.0509,0.0541,0.0577,0.0612,0.0627,0.0645,0.0658,0.0621,0.0552,0.0475,0.0366,0.0267,0.017,0.0118,0.0081,0.0081,0.0086,0.0096,0.0084,0.0089,0.0049,0.005,0.005,0.005,0,0.047,0.0479,0.0492,0.0517,0.0557,0.0585,0.0611,0.0623,0.0639,0.0637,0.0623,0.0547,0.0509,0.0372,0.0278,0.0187,0.016,0.0121,0.0119,0.0121,0.0157,0.018,0.0143,0,0,0,0,0,0.0474,0.0476,0.05,0.0516,0.0555,0.0572,0.0622,0.0643,0.0661,0.0634,0.0628,0.0553,0.0421,0.0368,0.0273,0.0261,0.0145,0.0146,0.0099,0.0035,0.0038,0.0069,0,0,0,0,0,0,0.0473,0.0492,0.049,0.0508,0.0517,0.0556,0.0584,0.0602,0.0586,0.0596,0.0528,0.0509,0.0384,0.0465,0.026,0.0236,0.0189,0.0093,0.009,0.0033,0.0036,0.0038,0.0071,0,0,0,0,0]}]]